Location: Nachod
(50.4170°N, 16.1670°E)
Time: 15:31:33
(UTC+01:00)

ISS - Visible Passes

Search period start: 12 December 2018 00:00
Search period end: 22 December 2018 00:00
Orbit: 401 x 408 km, 51.6° (Epoch: 12 December)

Date Brightness Start Highest point End Pass type
(mag) Time Alt. Az. Time Alt. Az. Time Alt. Az.
12 Dec -1.4 17:22:52 10° W 17:25:33 24° SW 17:28:14 10° SSE visible
13 Dec -2.1 16:30:30 10° W 16:33:32 36° SSW 16:36:34 10° SE visible
14 Dec -0.5 17:15:50 10° WSW 17:17:22 13° SW 17:18:54 10° SSW visible
